| time (UTC) | temp F | wind direction | speed MPH | gust MPH | rain 1hr in | rain 24hr in | rain mn in | humidity % | barometer mb |
| 20260509002504 | 60 | 223 | 3.0 | 8.0 | 0.00 | 0.04 | 0.01 | 88 | 1029.4 |
| 20260509002004 | 60 | 225 | 3.0 | 8.0 | 0.00 | 0.04 | 0.01 | 89 | 1029.4 |
| 20260509001524 | 60 | 243 | 3.0 | 6.0 | 0.00 | 0.04 | 0.01 | 90 | 1029.4 |
| 20260509001004 | 59 | 249 | 3.0 | 6.0 | 0.00 | 0.04 | 0.01 | 90 | 1029.5 |
| 20260509000503 | 59 | 225 | 3.0 | 8.0 | 0.00 | 0.04 | 0.01 | 91 | 1029.5 |
| 20260509000004 | 59 | 206 | 2.0 | 8.0 | 0.00 | 0.04 | 0.01 | 91 | 1029.6 |
| 20260508235525 | 59 | 191 | 1.0 | 8.0 | 0.00 | 0.04 | 0.01 | 92 | 1029.5 |
| 20260508235024 | 58 | 179 | 0.0 | 5.0 | 0.00 | 0.04 | 0.01 | 92 | 1029.5 |
| 20260508234503 | 58 | 0 | 0.0 | 0.0 | 0.00 | 0.04 | 0.01 | 92 | 1029.6 |
| 20260508234004 | 57 | 0 | 0.0 | 0.0 | 0.00 | 0.04 | 0.01 | 92 | 1029.7 |
| 20260508233524 | 57 | 0 | 0.0 | 0.0 | 0.00 | 0.04 | 0.01 | 93 | 1029.6 |
| 20260508233004 | 57 | 0 | 0.0 | 0.0 | 0.00 | 0.04 | 0.01 | 93 | 1029.6 |
| 20260508232504 | 56 | 0 | 0.0 | 0.0 | 0.00 | 0.04 | 0.01 | 93 | 1029.6 |
| 20260508232003 | 56 | 0 | 0.0 | 0.0 | 0.00 | 0.04 | 0.01 | 93 | 1029.5 |
| 20260508231503 | 56 | 0 | 0.0 | 0.0 | 0.00 | 0.04 | 0.01 | 93 | 1029.5 |
| 20260508231003 | 56 | 0 | 0.0 | 0.0 | 0.00 | 0.04 | 0.01 | 93 | 1029.4 |
| 20260508230503 | 55 | 0 | 0.0 | 0.0 | 0.00 | 0.04 | 0.01 | 93 | 1029.3 |
| 20260508230004 | 55 | 0 | 0.0 | 0.0 | 0.00 | 0.04 | 0.01 | 93 | 1029.3 |
| 20260508225504 | 55 | 0 | 0.0 | 0.0 | 0.00 | 0.04 | 0.01 | 92 | 1029.4 |
| 20260508225003 | 55 | 0 | 0.0 | 0.0 | 0.00 | 0.04 | 0.01 | 92 | 1029.3 |
| 20260508224503 | 55 | 0 | 0.0 | 0.0 | 0.00 | 0.04 | 0.01 | 93 | 1029.3 |
| 20260508224004 | 55 | 0 | 0.0 | 0.0 | 0.00 | 0.04 | 0.01 | 93 | 1029.2 |
| 20260508223524 | 55 | 0 | 0.0 | 0.0 | 0.00 | 0.04 | 0.01 | 93 | 1029.1 |
| 20260508223003 | 55 | 0 | 0.0 | 0.0 | 0.00 | 0.04 | 0.01 | 93 | 1029.1 |
| 20260508222503 | 55 | 0 | 0.0 | 0.0 | 0.00 | 0.04 | 0.01 | 93 | 1029.1 |
| 20260508222004 | 55 | 0 | 0.0 | 0.0 | 0.00 | 0.04 | 0.01 | 93 | 1029.1 |
| 20260508221524 | 55 | 0 | 0.0 | 0.0 | 0.00 | 0.04 | 0.01 | 93 | 1029.1 |
| 20260508221024 | 55 | 0 | 0.0 | 0.0 | 0.00 | 0.04 | 0.01 | 93 | 1029.1 |
| 20260508220503 | 54 | 0 | 0.0 | 0.0 | 0.00 | 0.04 | 0.01 | 93 | 1029.1 |
| 20260508220003 | 54 | 0 | 0.0 | 0.0 | 0.00 | 0.04 | 0.01 | 93 | 1029.0 |
| 20260508215503 | 54 | 0 | 0.0 | 0.0 | 0.00 | 0.04 | 0.01 | 93 | 1029.0 |
| 20260508215025 | 54 | 0 | 0.0 | 0.0 | 0.00 | 0.04 | 0.01 | 93 | 1028.9 |
| 20260508214524 | 53 | 0 | 0.0 | 0.0 | 0.00 | 0.04 | 0.01 | 93 | 1029.0 |
| 20260508214025 | 53 | 0 | 0.0 | 0.0 | 0.00 | 0.04 | 0.01 | 93 | 1028.9 |
| 20260508213503 | 53 | 0 | 0.0 | 0.0 | 0.00 | 0.04 | 0.01 | 92 | 1028.9 |
| 20260508213003 | 53 | 98 | 1.0 | 3.0 | 0.00 | 0.04 | 0.01 | 92 | 1028.8 |
| 20260508212503 | 53 | 98 | 1.0 | 3.0 | 0.00 | 0.04 | 0.01 | 92 | 1028.7 |
| 20260508212003 | 53 | 98 | 0.0 | 3.0 | 0.00 | 0.04 | 0.01 | 92 | 1028.7 |
| 20260508211503 | 53 | 98 | 0.0 | 3.0 | 0.00 | 0.04 | 0.01 | 92 | 1028.6 |
| 20260508211003 | 53 | 0 | 0.0 | 0.0 | 0.00 | 0.04 | 0.01 | 92 | 1028.6 |
| 20260508210503 | 53 | 0 | 0.0 | 0.0 | 0.00 | 0.04 | 0.01 | 92 | 1028.5 |
| 20260508210003 | 53 | 0 | 0.0 | 0.0 | 0.00 | 0.04 | 0.01 | 92 | 1028.5 |
| 20260508205504 | 53 | 98 | 0.0 | 1.0 | 0.00 | 0.04 | 0.01 | 92 | 1028.5 |
| 20260508205003 | 53 | 98 | 1.0 | 3.0 | 0.00 | 0.04 | 0.01 | 92 | 1028.6 |
| 20260508204503 | 53 | 98 | 2.0 | 5.0 | 0.00 | 0.04 | 0.01 | 92 | 1028.5 |
| 20260508204003 | 53 | 98 | 3.0 | 5.0 | 0.00 | 0.04 | 0.01 | 92 | 1028.4 |
| 20260508203503 | 53 | 98 | 4.0 | 5.0 | 0.00 | 0.04 | 0.01 | 92 | 1028.4 |
| 20260508203004 | 53 | 99 | 4.0 | 8.0 | 0.00 | 0.04 | 0.01 | 92 | 1028.3 |
| 20260508202525 | 53 | 98 | 4.0 | 8.0 | 0.00 | 0.04 | 0.01 | 92 | 1028.3 |
| 20260508202004 | 53 | 98 | 4.0 | 5.0 | 0.00 | 0.04 | 0.01 | 92 | 1028.2 |
| 20260508201504 | 53 | 98 | 4.0 | 6.0 | 0.00 | 0.04 | 0.01 | 92 | 1028.2 |
| 20260508201004 | 53 | 100 | 4.0 | 6.0 | 0.00 | 0.04 | 0.01 | 92 | 1028.1 |
| 20260508200525 | 53 | 100 | 4.0 | 6.0 | 0.00 | 0.04 | 0.01 | 92 | 1028.1 |
| 20260508200004 | 53 | 96 | 4.0 | 6.0 | 0.00 | 0.04 | 0.01 | 92 | 1028.1 |
| 20260508195504 | 53 | 92 | 4.0 | 6.0 | 0.00 | 0.04 | 0.01 | 92 | 1028.0 |
| 20260508195025 | 53 | 93 | 3.0 | 6.0 | 0.00 | 0.04 | 0.01 | 92 | 1028.0 |
| 20260508194525 | 53 | 100 | 3.0 | 6.0 | 0.00 | 0.04 | 0.01 | 92 | 1028.0 |
| 20260508194004 | 53 | 97 | 3.0 | 6.0 | 0.00 | 0.04 | 0.01 | 92 | 1028.0 |
| 20260508193504 | 53 | 92 | 5.0 | 6.0 | 0.00 | 0.04 | 0.01 | 92 | 1027.9 |
| 20260508193004 | 53 | 95 | 5.0 | 8.0 | 0.00 | 0.04 | 0.01 | 92 | 1027.9 |
| 20260508192504 | 53 | 98 | 5.0 | 9.0 | 0.00 | 0.04 | 0.01 | 92 | 1027.9 |
| 20260508192004 | 53 | 100 | 5.0 | 9.0 | 0.00 | 0.04 | 0.01 | 92 | 1027.9 |
| 20260508191525 | 53 | 99 | 5.0 | 6.0 | 0.00 | 0.04 | 0.01 | 92 | 1027.8 |
| 20260508191004 | 53 | 98 | 5.0 | 6.0 | 0.00 | 0.04 | 0.01 | 92 | 1027.7 |
| 20260508190504 | 53 | 101 | 4.0 | 6.0 | 0.00 | 0.04 | 0.01 | 92 | 1027.7 |
| 20260508190004 | 53 | 106 | 3.0 | 6.0 | 0.00 | 0.04 | 0.01 | 92 | 1027.6 |
| 20260508185504 | 53 | 108 | 3.0 | 5.0 | 0.00 | 0.04 | 0.01 | 92 | 1027.7 |
| 20260508185004 | 53 | 107 | 4.0 | 5.0 | 0.00 | 0.04 | 0.01 | 92 | 1027.7 |
| 20260508184504 | 53 | 105 | 4.0 | 6.0 | 0.00 | 0.04 | 0.01 | 92 | 1027.7 |
| 20260508184004 | 53 | 103 | 4.0 | 6.0 | 0.00 | 0.04 | 0.01 | 92 | 1027.7 |
| 20260508183504 | 53 | 104 | 3.0 | 6.0 | 0.00 | 0.04 | 0.01 | 92 | 1027.7 |
| 20260508183004 | 53 | 106 | 3.0 | 6.0 | 0.00 | 0.04 | 0.01 | 92 | 1027.8 |
| 20260508182525 | 53 | 105 | 4.0 | 6.0 | 0.00 | 0.04 | 0.01 | 92 | 1027.9 |
| 20260508182025 | 53 | 101 | 4.0 | 6.0 | 0.00 | 0.04 | 0.01 | 92 | 1027.9 |
| 20260508181504 | 52 | 98 | 3.0 | 6.0 | 0.00 | 0.04 | 0.01 | 92 | 1028.0 |
| 20260508181004 | 52 | 98 | 3.0 | 5.0 | 0.00 | 0.04 | 0.01 | 92 | 1028.0 |
| 20260508180504 | 52 | 98 | 3.0 | 5.0 | 0.00 | 0.04 | 0.01 | 92 | 1028.0 |
| 20260508180004 | 52 | 98 | 3.0 | 6.0 | 0.00 | 0.04 | 0.01 | 92 | 1028.0 |
| 20260508175525 | 52 | 98 | 4.0 | 6.0 | 0.00 | 0.04 | 0.01 | 92 | 1028.0 |
| 20260508175004 | 52 | 98 | 4.0 | 6.0 | 0.00 | 0.04 | 0.01 | 92 | 1028.0 |
| 20260508174504 | 52 | 98 | 3.0 | 6.0 | 0.00 | 0.04 | 0.01 | 92 | 1028.1 |
| 20260508174025 | 52 | 98 | 3.0 | 6.0 | 0.00 | 0.04 | 0.01 | 92 | 1028.1 |
| 20260508173525 | 52 | 98 | 3.0 | 6.0 | 0.00 | 0.04 | 0.01 | 92 | 1028.1 |
| 20260508173004 | 51 | 98 | 4.0 | 5.0 | 0.00 | 0.04 | 0.01 | 92 | 1028.2 |
| 20260508172504 | 51 | 101 | 4.0 | 6.0 | 0.00 | 0.04 | 0.01 | 91 | 1028.2 |
| 20260508172004 | 51 | 92 | 4.0 | 6.0 | 0.00 | 0.04 | 0.01 | 91 | 1028.2 |
| 20260508171525 | 51 | 78 | 4.0 | 5.0 | 0.00 | 0.04 | 0.01 | 91 | 1028.2 |
| 20260508171025 | 52 | 82 | 3.0 | 5.0 | 0.00 | 0.04 | 0.01 | 91 | 1028.2 |
| 20260508170504 | 52 | 88 | 3.0 | 5.0 | 0.00 | 0.04 | 0.01 | 91 | 1028.1 |
| 20260508170004 | 52 | 88 | 4.0 | 5.0 | 0.00 | 0.04 | 0.01 | 91 | 1028.1 |
| 20260508165525 | 52 | 88 | 4.0 | 6.0 | 0.00 | 0.04 | 0.01 | 91 | 1028.1 |
| 20260508165004 | 52 | 88 | 4.0 | 6.0 | 0.00 | 0.04 | 0.01 | 91 | 1028.1 |
| 20260508164504 | 52 | 88 | 4.0 | 6.0 | 0.00 | 0.04 | 0.01 | 91 | 1028.1 |
| 20260508164025 | 52 | 88 | 4.0 | 5.0 | 0.00 | 0.04 | 0.01 | 91 | 1028.1 |
| 20260508163504 | 52 | 88 | 4.0 | 5.0 | 0.00 | 0.04 | 0.01 | 91 | 1028.1 |
| 20260508163004 | 52 | 90 | 5.0 | 6.0 | 0.00 | 0.04 | 0.01 | 91 | 1028.0 |
| 20260508162504 | 52 | 93 | 4.0 | 8.0 | 0.00 | 0.04 | 0.01 | 91 | 1028.1 |
| 20260508162004 | 52 | 94 | 2.0 | 8.0 | 0.00 | 0.04 | 0.01 | 90 | 1028.1 |
| 20260508161504 | 52 | 95 | 0.0 | 8.0 | 0.00 | 0.04 | 0.01 | 90 | 1028.0 |
| 20260508161004 | 52 | 0 | 0.0 | 0.0 | 0.01 | 0.04 | 0.01 | 90 | 1028.0 |
| 20260508160525 | 52 | 0 | 0.0 | 0.0 | 0.01 | 0.04 | 0.01 | 90 | 1028.1 |
| 20260508160004 | 52 | 0 | 0.0 | 0.0 | 0.01 | 0.04 | 0.01 | 90 | 1028.1 |
| 20260508155504 | 52 | 0 | 0.0 | 0.0 | 0.01 | 0.04 | 0.01 | 90 | 1028.1 |
| 20260508155004 | 52 | 0 | 0.0 | 0.0 | 0.01 | 0.04 | 0.01 | 90 | 1028.1 |
| 20260508154504 | 52 | 0 | 0.0 | 0.0 | 0.01 | 0.04 | 0.01 | 89 | 1028.1 |
| 20260508154004 | 53 | 0 | 0.0 | 0.0 | 0.01 | 0.04 | 0.01 | 89 | 1028.2 |
| 20260508153504 | 53 | 0 | 0.0 | 0.0 | 0.01 | 0.04 | 0.01 | 89 | 1028.2 |
| 20260508153004 | 53 | 0 | 0.0 | 0.0 | 0.01 | 0.04 | 0.01 | 89 | 1028.1 |
| 20260508152525 | 53 | 0 | 0.0 | 0.0 | 0.01 | 0.04 | 0.01 | 89 | 1028.1 |
| 20260508152004 | 54 | 0 | 0.0 | 0.0 | 0.01 | 0.04 | 0.01 | 89 | 1028.1 |
| 20260508151504 | 54 | 0 | 0.0 | 0.0 | 0.01 | 0.04 | 0.01 | 89 | 1028.2 |
| 20260508151025 | 54 | 0 | 0.0 | 0.0 | 0.00 | 0.03 | 0.00 | 89 | 1028.2 |
| 20260508150504 | 54 | 0 | 0.0 | 0.0 | 0.00 | 0.03 | 0.00 | 89 | 1028.2 |
| 20260508150004 | 55 | 0 | 0.0 | 0.0 | 0.00 | 0.03 | 0.00 | 89 | 1028.2 |
| 20260508145504 | 55 | 0 | 0.0 | 0.0 | 0.00 | 0.03 | 0.00 | 89 | 1028.2 |
| 20260508145004 | 55 | 0 | 0.0 | 0.0 | 0.00 | 0.03 | 0.00 | 89 | 1028.2 |
| 20260508144504 | 55 | 0 | 0.0 | 0.0 | 0.00 | 0.03 | 0.00 | 89 | 1028.2 |
| 20260508144025 | 55 | 0 | 0.0 | 0.0 | 0.00 | 0.03 | 0.00 | 89 | 1028.3 |
| 20260508143503 | 55 | 0 | 0.0 | 0.0 | 0.00 | 0.03 | 0.00 | 89 | 1028.3 |
| 20260508143005 | 55 | 208 | 0.0 | 3.0 | 0.00 | 0.03 | 0.00 | 89 | 1028.3 |
| 20260508142504 | 55 | 204 | 0.0 | 3.0 | 0.00 | 0.03 | 0.03 | 89 | 1028.3 |
| 20260508142004 | 55 | 190 | 0.0 | 3.0 | 0.00 | 0.03 | 0.03 | 89 | 1028.4 |
| 20260508141504 | 55 | 190 | 0.0 | 3.0 | 0.00 | 0.03 | 0.03 | 89 | 1028.4 |
| 20260508141025 | 55 | 0 | 0.0 | 0.0 | 0.00 | 0.03 | 0.03 | 89 | 1028.4 |
| 20260508140504 | 55 | 0 | 0.0 | 0.0 | 0.00 | 0.03 | 0.03 | 89 | 1028.3 |
| 20260508140004 | 55 | 0 | 0.0 | 0.0 | 0.00 | 0.03 | 0.03 | 89 | 1028.4 |
| 20260508135503 | 55 | 0 | 0.0 | 0.0 | 0.00 | 0.03 | 0.03 | 89 | 1028.5 |
| 20260508135004 | 55 | 0 | 0.0 | 0.0 | 0.00 | 0.03 | 0.03 | 89 | 1028.4 |
| 20260508134504 | 55 | 0 | 0.0 | 0.0 | 0.00 | 0.03 | 0.03 | 89 | 1028.5 |
| 20260508134003 | 55 | 0 | 0.0 | 0.0 | 0.00 | 0.03 | 0.03 | 89 | 1028.6 |
| 20260508133504 | 55 | 0 | 0.0 | 0.0 | 0.00 | 0.03 | 0.03 | 89 | 1028.6 |
| 20260508133004 | 55 | 0 | 0.0 | 0.0 | 0.00 | 0.03 | 0.03 | 89 | 1028.6 |
| 20260508132503 | 55 | 0 | 0.0 | 0.0 | 0.00 | 0.03 | 0.03 | 89 | 1028.7 |
| 20260508132004 | 54 | 0 | 0.0 | 0.0 | 0.00 | 0.03 | 0.03 | 89 | 1028.7 |
| 20260508131525 | 54 | 0 | 0.0 | 0.0 | 0.00 | 0.03 | 0.03 | 89 | 1028.7 |
| 20260508131004 | 54 | 0 | 0.0 | 0.0 | 0.00 | 0.03 | 0.03 | 89 | 1028.7 |
| 20260508130504 | 54 | 182 | 1.0 | 1.0 | 0.00 | 0.03 | 0.03 | 89 | 1028.7 |
| 20260508130004 | 54 | 182 | 1.0 | 3.0 | 0.00 | 0.03 | 0.03 | 89 | 1028.7 |
| 20260508125504 | 54 | 182 | 1.0 | 3.0 | 0.00 | 0.03 | 0.03 | 89 | 1028.8 |
| 20260508125004 | 54 | 182 | 0.0 | 3.0 | 0.00 | 0.03 | 0.03 | 88 | 1028.8 |
| 20260508124525 | 54 | 182 | 0.0 | 3.0 | 0.00 | 0.03 | 0.03 | 88 | 1028.8 |
| 20260508124025 | 54 | 0 | 0.0 | 0.0 | 0.00 | 0.03 | 0.03 | 88 | 1028.9 |
| 20260508123525 | 54 | 180 | 1.0 | 3.0 | 0.00 | 0.03 | 0.03 | 88 | 1028.9 |
| 20260508123004 | 54 | 180 | 1.0 | 3.0 | 0.00 | 0.03 | 0.03 | 88 | 1028.9 |
| 20260508122504 | 54 | 180 | 3.0 | 3.0 | 0.00 | 0.03 | 0.03 | 88 | 1028.8 |
| 20260508122003 | 54 | 184 | 3.0 | 3.0 | 0.00 | 0.03 | 0.03 | 88 | 1028.9 |
| 20260508121503 | 54 | 182 | 5.0 | 5.0 | 0.00 | 0.03 | 0.03 | 88 | 1028.9 |
| 20260508121003 | 54 | 191 | 5.0 | 5.0 | 0.00 | 0.03 | 0.03 | 87 | 1028.9 |
| 20260508120525 | 54 | 204 | 0.0 | 4.0 | 0.00 | 0.03 | 0.03 | 87 | 1028.9 |
| 20260508120025 | 54 | 0 | 0.0 | 0.0 | 0.00 | 0.03 | 0.03 | 87 | 1028.9 |
| 20260508115504 | 54 | 0 | 0.0 | 0.0 | 0.00 | 0.03 | 0.03 | 87 | 1028.9 |
| 20260508115004 | 54 | 0 | 0.0 | 0.0 | 0.00 | 0.03 | 0.03 | 86 | 1028.9 |
| 20260508114503 | 54 | 0 | 0.0 | 0.0 | 0.00 | 0.03 | 0.03 | 86 | 1028.9 |
| 20260508114004 | 54 | 0 | 0.0 | 0.0 | 0.00 | 0.03 | 0.03 | 86 | 1028.9 |
| 20260508113525 | 54 | 0 | 0.0 | 5.0 | 0.00 | 0.03 | 0.03 | 86 | 1028.9 |
| 20260508113004 | 54 | 0 | 1.0 | 5.0 | 0.00 | 0.03 | 0.03 | 85 | 1028.9 |
| 20260508112524 | 54 | 136 | 2.0 | 4.0 | 0.00 | 0.03 | 0.03 | 85 | 1028.9 |
| 20260508112024 | 54 | 134 | 1.0 | 5.0 | 0.00 | 0.03 | 0.03 | 85 | 1028.9 |
| 20260508111504 | 55 | 134 | 0.0 | 5.0 | 0.00 | 0.03 | 0.03 | 84 | 1028.9 |
| 20260508111004 | 55 | 191 | 0.0 | 3.0 | 0.00 | 0.03 | 0.03 | 84 | 1028.8 |
| 20260508110504 | 55 | 191 | 0.0 | 3.0 | 0.00 | 0.03 | 0.03 | 84 | 1028.8 |
| 20260508110004 | 55 | 0 | 1.0 | 0.0 | 0.00 | 0.03 | 0.03 | 84 | 1028.7 |
| 20260508105503 | 56 | 191 | 1.0 | 6.0 | 0.00 | 0.03 | 0.03 | 84 | 1028.8 |
| 20260508105004 | 56 | 194 | 1.0 | 8.0 | 0.00 | 0.03 | 0.03 | 83 | 1028.7 |
| 20260508104504 | 56 | 193 | 1.0 | 8.0 | 0.00 | 0.03 | 0.03 | 83 | 1028.7 |
| 20260508104003 | 56 | 166 | 3.0 | 8.0 | 0.00 | 0.03 | 0.03 | 83 | 1028.6 |
| 20260508103503 | 56 | 171 | 3.0 | 10.0 | 0.00 | 0.03 | 0.03 | 83 | 1028.6 |
| 20260508103003 | 56 | 176 | 3.0 | 10.0 | 0.00 | 0.03 | 0.03 | 84 | 1028.7 |
| 20260508102504 | 57 | 180 | 4.0 | 9.0 | 0.00 | 0.03 | 0.03 | 84 | 1028.7 |
| 20260508102025 | 57 | 184 | 4.0 | 9.0 | 0.00 | 0.03 | 0.03 | 84 | 1028.7 |
| 20260508101503 | 57 | 188 | 4.0 | 10.0 | 0.00 | 0.03 | 0.03 | 84 | 1028.6 |
| 20260508101024 | 57 | 188 | 5.0 | 10.0 | 0.00 | 0.03 | 0.03 | 85 | 1028.6 |
| 20260508100504 | 57 | 187 | 5.0 | 10.0 | 0.00 | 0.03 | 0.03 | 85 | 1028.6 |
| 20260508100004 | 57 | 185 | 5.0 | 10.0 | 0.00 | 0.03 | 0.03 | 85 | 1028.6 |
| 20260508095503 | 57 | 187 | 6.0 | 10.0 | 0.00 | 0.03 | 0.03 | 86 | 1028.5 |
| 20260508095024 | 57 | 192 | 6.0 | 10.0 | 0.00 | 0.03 | 0.03 | 86 | 1028.5 |
| 20260508094525 | 57 | 188 | 5.0 | 10.0 | 0.00 | 0.03 | 0.03 | 86 | 1028.5 |
| 20260508094003 | 57 | 186 | 5.0 | 10.0 | 0.00 | 0.03 | 0.03 | 86 | 1028.5 |
| 20260508093503 | 57 | 190 | 5.0 | 10.0 | 0.00 | 0.03 | 0.03 | 85 | 1028.5 |
| 20260508093004 | 57 | 192 | 5.0 | 11.0 | 0.00 | 0.03 | 0.03 | 85 | 1028.4 |
| 20260508092503 | 58 | 193 | 6.0 | 11.0 | 0.00 | 0.03 | 0.03 | 85 | 1028.4 |
| 20260508092004 | 58 | 198 | 6.0 | 11.0 | 0.00 | 0.03 | 0.03 | 85 | 1028.3 |
| 20260508091503 | 58 | 204 | 6.0 | 11.0 | 0.00 | 0.03 | 0.03 | 85 | 1028.3 |
| 20260508091004 | 58 | 205 | 6.0 | 14.0 | 0.00 | 0.03 | 0.03 | 85 | 1028.4 |
| 20260508090504 | 58 | 206 | 6.0 | 14.0 | 0.00 | 0.03 | 0.03 | 84 | 1028.4 |
| 20260508090003 | 58 | 205 | 6.0 | 13.0 | 0.00 | 0.03 | 0.03 | 84 | 1028.4 |
| 20260508085524 | 58 | 204 | 6.0 | 10.0 | 0.00 | 0.03 | 0.03 | 84 | 1028.3 |
| 20260508085003 | 59 | 207 | 6.0 | 9.0 | 0.00 | 0.03 | 0.03 | 83 | 1028.3 |
| 20260508084503 | 59 | 212 | 6.0 | 10.0 | 0.00 | 0.03 | 0.03 | 83 | 1028.3 |
| 20260508084003 | 59 | 217 | 6.0 | 14.0 | 0.00 | 0.03 | 0.03 | 83 | 1028.2 |
| 20260508083525 | 59 | 215 | 5.0 | 14.0 | 0.00 | 0.03 | 0.03 | 82 | 1028.2 |
| 20260508083024 | 59 | 213 | 6.0 | 14.0 | 0.00 | 0.03 | 0.03 | 82 | 1028.2 |
| 20260508082525 | 60 | 215 | 6.0 | 11.0 | 0.00 | 0.03 | 0.03 | 82 | 1028.2 |
| 20260508082003 | 60 | 219 | 5.0 | 11.0 | 0.00 | 0.03 | 0.03 | 81 | 1028.1 |
| 20260508081504 | 60 | 223 | 7.0 | 10.0 | 0.00 | 0.03 | 0.03 | 80 | 1028.1 |
| 20260508081004 | 60 | 223 | 9.0 | 15.0 | 0.00 | 0.03 | 0.03 | 80 | 1028.0 |
| 20260508080503 | 60 | 220 | 9.0 | 17.0 | 0.00 | 0.03 | 0.03 | 79 | 1028.0 |
| 20260508080004 | 61 | 217 | 9.0 | 17.0 | 0.00 | 0.03 | 0.03 | 79 | 1027.9 |
| 20260508075503 | 61 | 217 | 8.0 | 17.0 | 0.00 | 0.03 | 0.03 | 79 | 1027.9 |
| 20260508075004 | 61 | 221 | 7.0 | 17.0 | 0.00 | 0.03 | 0.03 | 79 | 1027.9 |
| 20260508074525 | 61 | 226 | 6.0 | 17.0 | 0.00 | 0.03 | 0.03 | 80 | 1027.9 |
| 20260508074003 | 61 | 222 | 6.0 | 14.0 | 0.00 | 0.03 | 0.03 | 80 | 1027.8 |
| 20260508073503 | 61 | 215 | 6.0 | 10.0 | 0.00 | 0.03 | 0.03 | 79 | 1027.8 |
| 20260508073003 | 61 | 219 | 7.0 | 13.0 | 0.00 | 0.03 | 0.03 | 80 | 1027.8 |
| 20260508072504 | 61 | 222 | 8.0 | 15.0 | 0.00 | 0.03 | 0.03 | 80 | 1027.8 |
| 20260508072004 | 61 | 220 | 9.0 | 17.0 | 0.00 | 0.03 | 0.03 | 80 | 1027.8 |
| 20260508071525 | 62 | 220 | 9.0 | 17.0 | 0.00 | 0.03 | 0.03 | 80 | 1027.8 |
| 20260508071025 | 62 | 228 | 10.0 | 18.0 | 0.00 | 0.03 | 0.03 | 80 | 1027.8 |
| 20260508070504 | 62 | 235 | 11.0 | 19.0 | 0.00 | 0.03 | 0.03 | 79 | 1027.8 |
| 20260508070004 | 62 | 233 | 10.0 | 19.0 | 0.00 | 0.03 | 0.03 | 78 | 1027.8 |
| 20260508065504 | 62 | 233 | 9.0 | 19.0 | 0.00 | 0.03 | 0.03 | 77 | 1027.9 |
| 20260508065004 | 62 | 234 | 9.0 | 19.0 | 0.00 | 0.03 | 0.03 | 77 | 1027.9 |
| 20260508064504 | 63 | 219 | 9.0 | 17.0 | 0.00 | 0.03 | 0.03 | 77 | 1027.8 |
| 20260508064004 | 63 | 212 | 9.0 | 19.0 | 0.00 | 0.03 | 0.03 | 77 | 1027.8 |
| 20260508063504 | 63 | 218 | 9.0 | 19.0 | 0.00 | 0.03 | 0.03 | 76 | 1027.7 |
| 20260508063004 | 63 | 217 | 9.0 | 15.0 | 0.00 | 0.03 | 0.03 | 76 | 1027.8 |
| 20260508062504 | 63 | 209 | 9.0 | 15.0 | 0.00 | 0.03 | 0.03 | 75 | 1027.8 |
| 20260508062004 | 63 | 206 | 9.0 | 18.0 | 0.00 | 0.03 | 0.03 | 75 | 1027.8 |
| 20260508061504 | 64 | 208 | 9.0 | 19.0 | 0.00 | 0.03 | 0.03 | 74 | 1027.8 |
| 20260508061004 | 64 | 213 | 9.0 | 19.0 | 0.00 | 0.03 | 0.03 | 75 | 1027.7 |
| 20260508060504 | 64 | 216 | 10.0 | 15.0 | 0.00 | 0.03 | 0.03 | 74 | 1027.7 |
| 20260508060004 | 64 | 226 | 10.0 | 15.0 | 0.00 | 0.03 | 0.03 | 75 | 1027.7 |
| 20260508055504 | 64 | 234 | 10.0 | 19.0 | 0.00 | 0.03 | 0.03 | 76 | 1027.7 |
| 20260508055004 | 63 | 229 | 10.0 | 19.0 | 0.00 | 0.03 | 0.03 | 75 | 1027.8 |
| 20260508054525 | 63 | 219 | 9.0 | 18.0 | 0.00 | 0.03 | 0.03 | 75 | 1027.7 |
| 20260508054004 | 63 | 216 | 9.0 | 18.0 | 0.00 | 0.03 | 0.03 | 74 | 1027.7 |
| 20260508053504 | 63 | 227 | 9.0 | 17.0 | 0.00 | 0.03 | 0.03 | 75 | 1027.7 |
| 20260508053004 | 64 | 229 | 9.0 | 15.0 | 0.00 | 0.03 | 0.03 | 75 | 1027.7 |
| 20260508052504 | 64 | 217 | 10.0 | 18.0 | 0.00 | 0.03 | 0.03 | 74 | 1027.7 |
| 20260508052004 | 64 | 216 | 10.0 | 19.0 | 0.00 | 0.03 | 0.03 | 73 | 1027.8 |
| 20260508051504 | 65 | 225 | 9.0 | 19.0 | 0.00 | 0.03 | 0.03 | 72 | 1027.8 |
| 20260508051025 | 65 | 230 | 9.0 | 18.0 | 0.00 | 0.03 | 0.03 | 75 | 1027.9 |
| 20260508050525 | 64 | 222 | 8.0 | 18.0 | 0.00 | 0.03 | 0.03 | 79 | 1027.7 |
| 20260508050004 | 63 | 221 | 8.0 | 18.0 | 0.00 | 0.03 | 0.03 | 79 | 1027.9 |
| 20260508045504 | 64 | 231 | 9.0 | 13.0 | 0.00 | 0.03 | 0.03 | 80 | 1028.0 |
| 20260508045010 | 64 | 235 | 10.0 | 18.0 | 0.01 | 0.03 | 0.03 | 81 | 1028.0 |
| 20260508044504 | 64 | 238 | 9.0 | 19.0 | 0.01 | 0.03 | 0.03 | 82 | 1028.0 |
| 20260508044025 | 63 | 237 | 7.0 | 19.0 | 0.01 | 0.03 | 0.03 | 83 | 1028.1 |
| 20260508043504 | 63 | 233 | 8.0 | 13.0 | 0.01 | 0.03 | 0.03 | 86 | 1028.1 |
| 20260508043004 | 62 | 224 | 8.0 | 15.0 | 0.02 | 0.03 | 0.03 | 88 | 1028.1 |
| 20260508042525 | 61 | 217 | 8.0 | 15.0 | 0.02 | 0.03 | 0.03 | 88 | 1028.2 |
| 20260508042004 | 60 | 216 | 8.0 | 14.0 | 0.02 | 0.03 | 0.03 | 88 | 1028.2 |
| 20260508041504 | 60 | 220 | 8.0 | 18.0 | 0.02 | 0.03 | 0.03 | 88 | 1028.2 |
| 20260508041005 | 61 | 228 | 9.0 | 18.0 | 0.02 | 0.03 | 0.03 | 88 | 1028.4 |
| 20260508040504 | 60 | 238 | 10.0 | 18.0 | 0.02 | 0.03 | 0.03 | 87 | 1028.4 |
| 20260508040004 | 60 | 233 | 10.0 | 18.0 | 0.02 | 0.03 | 0.03 | 87 | 1028.4 |
| 20260508035504 | 61 | 232 | 8.0 | 18.0 | 0.02 | 0.03 | 0.03 | 87 | 1028.5 |
| 20260508035004 | 62 | 233 | 8.0 | 18.0 | 0.02 | 0.02 | 0.02 | 87 | 1028.4 |
| 20260508034504 | 62 | 237 | 9.0 | 17.0 | 0.02 | 0.02 | 0.02 | 87 | 1028.5 |
| 20260508034004 | 61 | 241 | 8.0 | 17.0 | 0.02 | 0.02 | 0.02 | 87 | 1028.7 |
| 20260508033504 | 61 | 225 | 7.0 | 17.0 | 0.02 | 0.02 | 0.02 | 86 | 1028.7 |
| 20260508033025 | 62 | 219 | 6.0 | 13.0 | 0.01 | 0.02 | 0.02 | 87 | 1028.7 |
| 20260508032504 | 61 | 223 | 6.0 | 11.0 | 0.01 | 0.02 | 0.02 | 87 | 1028.8 |
| 20260508032004 | 60 | 226 | 7.0 | 11.0 | 0.01 | 0.02 | 0.02 | 87 | 1028.8 |
| 20260508031504 | 61 | 226 | 8.0 | 14.0 | 0.01 | 0.02 | 0.02 | 87 | 1028.8 |
| 20260508031025 | 61 | 221 | 9.0 | 17.0 | 0.01 | 0.02 | 0.02 | 87 | 1028.9 |
| 20260508030504 | 60 | 224 | 9.0 | 18.0 | 0.02 | 0.02 | 0.02 | 86 | 1029.0 |
| 20260508030004 | 60 | 229 | 8.0 | 18.0 | 0.02 | 0.02 | 0.02 | 85 | 1029.1 |
| 20260508025504 | 61 | 240 | 8.0 | 15.0 | 0.01 | 0.01 | 0.01 | 85 | 1029.1 |
| 20260508025025 | 61 | 241 | 8.0 | 13.0 | 0.01 | 0.01 | 0.01 | 85 | 1029.1 |
| 20260508024504 | 62 | 230 | 8.0 | 15.0 | 0.01 | 0.01 | 0.01 | 85 | 1029.2 |
| 20260508024004 | 62 | 230 | 9.0 | 15.0 | 0.01 | 0.01 | 0.01 | 88 | 1029.3 |
| 20260508023504 | 60 | 229 | 8.0 | 15.0 | 0.01 | 0.01 | 0.01 | 87 | 1029.4 |
| 20260508023004 | 60 | 232 | 7.0 | 15.0 | 0.01 | 0.01 | 0.01 | 86 | 1029.5 |
| 20260508022504 | 60 | 240 | 7.0 | 14.0 | 0.01 | 0.01 | 0.01 | 86 | 1029.4 |
| 20260508022004 | 60 | 241 | 8.0 | 14.0 | 0.01 | 0.01 | 0.01 | 86 | 1029.5 |
| 20260508021504 | 60 | 232 | 9.0 | 17.0 | 0.01 | 0.01 | 0.01 | 86 | 1029.6 |
| 20260508021003 | 60 | 226 | 8.0 | 17.0 | 0.01 | 0.01 | 0.01 | 85 | 1029.7 |
| 20260508020504 | 60 | 227 | 8.0 | 15.0 | 0.00 | 0.00 | 0.00 | 83 | 1029.7 |
| 20260508020004 | 61 | 230 | 8.0 | 13.0 | 0.00 | 0.00 | 0.00 | 83 | 1029.7 |
| 20260508015525 | 61 | 223 | 7.0 | 17.0 | 0.00 | 0.00 | 0.00 | 84 | 1029.7 |
| 20260508015004 | 61 | 219 | 6.0 | 17.0 | 0.00 | 0.00 | 0.00 | 86 | 1029.8 |
| 20260508014504 | 60 | 223 | 6.0 | 14.0 | 0.00 | 0.00 | 0.00 | 87 | 1029.9 |
| 20260508014004 | 60 | 220 | 6.0 | 13.0 | 0.00 | 0.00 | 0.00 | 86 | 1030.0 |
| 20260508013504 | 60 | 216 | 6.0 | 13.0 | 0.00 | 0.00 | 0.00 | 85 | 1030.0 |
| 20260508013004 | 60 | 214 | 6.0 | 11.0 | 0.00 | 0.00 | 0.00 | 86 | 1030.1 |
| 20260508012525 | 60 | 207 | 6.0 | 10.0 | 0.00 | 0.00 | 0.00 | 86 | 1030.1 |
| 20260508012025 | 60 | 212 | 5.0 | 10.0 | 0.00 | 0.00 | 0.00 | 86 | 1030.2 |
| 20260508011504 | 60 | 210 | 5.0 | 10.0 | 0.00 | 0.00 | 0.00 | 86 | 1030.2 |
| 20260508011004 | 60 | 199 | 6.0 | 10.0 | 0.00 | 0.00 | 0.00 | 85 | 1030.2 |
| 20260508010504 | 59 | 205 | 6.0 | 13.0 | 0.00 | 0.00 | 0.00 | 85 | 1030.3 |
| 20260508010025 | 59 | 216 | 6.0 | 14.0 | 0.00 | 0.00 | 0.00 | 83 | 1030.2 |
| 20260508005504 | 60 | 211 | 6.0 | 14.0 | 0.00 | 0.00 | 0.00 | 82 | 1030.2 |
| 20260508005025 | 60 | 198 | 6.0 | 13.0 | 0.00 | 0.00 | 0.00 | 81 | 1030.2 |
| 20260508004504 | 60 | 196 | 7.0 | 10.0 | 0.00 | 0.00 | 0.00 | 80 | 1030.2 |
| 20260508004004 | 60 | 207 | 6.0 | 13.0 | 0.00 | 0.00 | 0.00 | 79 | 1030.1 |
| 20260508003504 | 60 | 212 | 5.0 | 13.0 | 0.00 | 0.00 | 0.00 | 79 | 1030.0 |
| 20260508003004 | 60 | 212 | 6.0 | 11.0 | 0.00 | 0.00 | 0.00 | 80 | 1029.9 |